Regional Weather Roundup
Issued by NWS Upton, NY

Current Version | Previous Version | Text Only | Print | Product List | Glossary On
Versions: 1 2 3 4 5 6 7 8 9 10 11 12 13 14 15 16 17 18 19 20 21 22 23 24 25 26 27 28 29 30 31 32 33 34 35 36 37 38 39 40 41 42 43 44 45 46 47 48 49 50
000
ASUS41 KOKX 021904
RWROKX

REGIONAL WEATHER ROUNDUP
NATIONAL WEATHER SERVICE NEW YORK NY
300 PM EDT WED SEP 02 2015

NOTE: "FAIR" INDICATES FEW OR NO CLOUDS BELOW 12,000 FEET WITH NO
SIGNIFICANT WEATHER AND/OR OBSTRUCTIONS TO VISIBILITY.

NYZ071-072-176-178-NJZ106-104-022000-
NEW YORK CITY METRO AREA


CITY           SKY/WX    TMP DP  RH WIND       PRES   REMARKS
CENTRAL PARK   MOSUNNY   89  67  47 S8        29.96F HX  92
LAGUARDIA APRT PTSUNNY   87  66  49 S12       29.93F
KENNEDY INTL   PTSUNNY   85  64  49 S13       29.96F
NEWARK/LIBERTY PTSUNNY   89  69  51 SE7       29.93F HX  93
BRNX BOT. GARD   N/A     84  68  58 SE12      29.96R
TETERBORO      MOSUNNY   89  65  44 S10       29.91F HX  91
$$

NYZ177-179-078>081-022000-
LONG ISLAND NEW YORK

CITY           SKY/WX    TMP DP  RH WIND       PRES   REMARKS
FARMINGDALE    MOSUNNY   84  64  50 S14       29.96F
ISLIP          PTSUNNY   84  64  50 SW12      29.95F
SHIRLEY        MOSUNNY   83  64  52 S14       29.97F
WESTHAMPTON    SUNNY     83  60  45 S13       29.98F
MONTAUK POINT    N/A     82  65  56 SW10G17   29.97F
$$

NYZ052-065-067-022000-
HUDSON VALLEY

CITY           SKY/WX    TMP DP  RH WIND       PRES   REMARKS
WHITE PLAINS   MOSUNNY   88  66  48 S9        29.95F HX  90
NEWBURGH       MOSUNNY   88  64  45 W9        29.96F
MONTGOMERY     MOSUNNY   91  64  40 NW10      29.94F HX  92
POUGHKEEPSIE   MOSUNNY   91  60  35 VRB5      29.93F HX  90
ALBANY         MOSUNNY   88  64  44 CALM      29.94F
$$

NJZ001-105-106-008-010-013-015-019>022-104-022000-
NEW JERSEY

CITY           SKY/WX    TMP DP  RH WIND       PRES   REMARKS
NEWARK/LIBERTY PTSUNNY   89  69  51 SE7       29.93F HX  93
TETERBORO      MOSUNNY   89  65  44 S10       29.91F HX  91
CALDWELL       SUNNY     91  57  31 VRB5      29.93F
MORRISTOWN     PTSUNNY   93  59  31 W9        29.94F HX  92
SOMERVILLE     MOSUNNY   92  61  35 MISG      29.91F HX  92
SUSSEX         MOSUNNY   87  65  47 VRB3      29.96F
ANDOVER          N/A     87  65  47 SW6       29.96F
TRENTON        MOSUNNY   89  66  46 SW3       29.94F HX  91
MILLVILLE      PTSUNNY   87  71  58 SW6       29.96F HX  93
ATLANTIC CITY  PTSUNNY   86  70  58 SE8       29.96F HX  90
WRIGHTSTOWN    PTSUNNY   89  68  49 W5        29.92F HX  92
TOMS RIVER     MOSUNNY   88  68  51 S8        29.95F HX  91
BELMAR         PTSUNNY   82  66  57 SE9G16    29.96F
$$

PAZ047>061-062-071-022000-
EASTERN PENNSYLVANIA

CITY           SKY/WX    TMP DP  RH WIND       PRES   REMARKS
PHILADELPHIA   PTSUNNY   91  63  39 S9        29.94F HX  92
ALLENTOWN      MOSUNNY   90  65  43 VRB3      29.95F HX  92
SCRANTON       SUNNY     88  62  41 W10       29.99F
$$

CTZ002-004>006-009-010-012-RIZ004-006-007-MAZ004-011-015-022000-
SOUTHERN NEW ENGLAND
 IN CT

CITY           SKY/WX    TMP DP  RH WIND       PRES   REMARKS
BRADLEY INTL   MOSUNNY   90  63  40 W9        29.92F HX  91
HARTFORD       MOSUNNY   91  62  37 NW8       29.91F HX  91
DANBURY        MOSUNNY   87  61  41 VRB6      29.96F
WTRBRY/OXFORD  MOSUNNY   88  64  45 VRB6      29.99F
BRIDGEPORT     SUNNY     87  67  51 SW13      29.94F HX  90
MERIDEN        SUNNY     91  61  36 SW9       29.92F HX  91
NEW HAVEN      MOSUNNY   85  66  53 SW9       29.94F
CHESTER        NOT AVBL
GROTON         SUNNY     79  70  74 S8        29.94F
WILLIMANTIC    SUNNY     89  61  38 VRB5      29.93F

 IN RI

CITY           SKY/WX    TMP DP  RH WIND       PRES   REMARKS
PROVIDENCE     MOSUNNY   89  63  41 SW12      29.92F HAZE    HX  90
BLOCK ISLAND   SUNNY     81  66  61 SW15      29.97F
WESTERLY       SUNNY     82  66  58 S12       29.95F

 IN MA

CITY           SKY/WX    TMP DP  RH WIND       PRES   REMARKS
BOSTON         SUNNY     90  62  39 SW10G16   29.90F HX  90
WORCESTER      SUNNY     84  59  42 W9        29.97F
WESTFIELD      SUNNY     88  63  43 NW9       29.93F
PROVINCETOWN     N/A     81  64  57 SW14      29.93F
NANTUCKET        N/A    N/A N/A N/A MISG      29.96F
$$

ANZ330-335-338-340-345-350-353-355-022000-
COASTAL MARINE OBSERVATIONS


STATION/POSITION TIME  SKY/WX   TEMP    WIND        PRES    VSBY  WAVE
                                AIR SEA DIR/SP/G                  HT/PER
                 (UTC)          (F)     (DEG/KT/KT) (MB)    (MI)  (FT/S)
NY HARB ENTRANCE 1750            77 78  180/ 12/ 14 1014.8          2/ 7
4S FIRE IS       NOT AVBL
20S FIRE ISLAND  1750            75 75  190/  8/  8 1015.4          2/ 8
GREAT SOUTH BAY  1800            76 80  220/ 12/ 12   N/A
23SW MTP         1850            75 74  220/  8/  8 1014.6          1/ 8
HUDSON CANYON    NOT AVBL
KINGS POINT      1800            81 74  190/ 11/ 12 1013.7
EXECUTION ROCKS  1800            83     180/  6/  8   N/A
CENTRAL LI SOUND NOT AVBL
EASTERN LI SOUND 1800            75 71  160/  4/  6   N/A
ROBBINS REEF     1800            78     160/ 16/ 18 1013.2
$$


>>>>>>>>>>>>>>>>>>>>>>>>>>>> KEY <<<<<<<<<<<<<<<<<<<<<<<<<<<
>                                                          <
>     SKY/WX - SKY CONDITION/PRESENT WEATHER               <
>     TMP    - TEMPERATURE IN FAHRENHEIT                   <
>     DP     - DEWPOINT IN FAHRENHEIT                      <
>     RH     - RELATIVE HUMIDITY IN PERCENT                <
>     WIND   - DIRECTION AND SPEED IN MPH                  <
>     PRES   - MEAN SEA LEVEL PRESSURE IN INCHES OF HG     <
>     WCI    - WIND CHILL INDEX                            <
>     VSB    - VISIBILITY IN MILES                         <
>     HX     - HEAT INDEX                                  <
>     TC     - TEMPERATURE IN CELSIUS                      <
>     VRB    - VARIABLE WIND DIRECTION                     <
>                                                          <
>>>>>>>>>>>>>>>>>>>>>>>>>>>> KEY <<<<<<<<<<<<<<<<<<<<<<<<<<<




USA.gov is the U.S. government's official web portal to all federal, state and local government web resources and services.